Weather History for CYXC - November, 2013

Change the Weather History Date:

Thursday, November 7, 2013

  Actual Average Record
Temperature  
Mean Temperature 29 °F -  
Max Temperature 31 °F 33 °F 56 °F (2014)
Min Temperature 27 °F 20 °F 0 °F (2003)
Degree Days  
Heating Degree Days 36    
Moisture  
Dew Point 28 °F    
Average Humidity 95    
Maximum Humidity 100    
Minimum Humidity 91    
Precipitation  
Precipitation 0.12 in 0.05 in - ()
Sea Level Pressure  
Sea Level Pressure 30.07 in    
Wind  
Wind Speed 2 mph ()    
Max Wind Speed 5 mph    
Max Gust Speed -    
Visibility 3.8 miles    
Events Fog , Snow    
Averages and records for this station are not official NWS values.
T = Trace of Precipitation, MM = Missing Value Source: Averaged Metar Reports

Daily Weather History Graph

Daily Weather History Graph

Search for Another Location

Airport or City:

Trip Planner

Search our weather history database for the weather conditions in past years. The results will help you decide how hot, cold, wet, or windy it might be!

Date:

Astronomy

Nov. 07, 2013 Rise Set
Actual Time 7:42 AM MST 5:10 PM MST
Civil Twilight 7:07 AM MST 5:45 PM MST
Nautical Twilight 6:29 AM MST 6:23 PM MST
Astronomical Twilight 5:52 AM MST 7:00 PM MST
Moon 11:59 AM MST (11/7) 9:23 PM MST (11/7)
Length of Visible Light 10h 37m
Length of Day
9h 28m
Waxing Crescent, 23% of the Moon is Illuminated
Nov 7
Waxing Crescent
Nov 9
First Quarter
Nov 17
Full
Nov 25
Last Quarter
Dec 2
New

Hourly Weather History & Observations

Time (MST) Temp. Windchill Dew Point Humidity Pressure Visibility Wind Dir Wind Speed Gust Speed Precip Events Conditions
12:00 AM 30.2 °F - 28.4 °F 93% 30.43 in 15.0 mi WSW 2.3 mph - N/A   Overcast
1:00 AM 28.4 °F - 26.6 °F 93% 30.41 in 15.0 mi SSW 2.3 mph - N/A   Overcast
2:00 AM 28.4 °F - 26.6 °F 93% 30.40 in 15.0 mi SW 2.3 mph - N/A   Overcast
3:00 AM 28.4 °F - 26.6 °F 93% 30.37 in 0.5 mi SSW 2.3 mph - N/A Fog Light Freezing Fog
3:31 AM 28.4 °F - 26.6 °F 93% 30.35 in 15.0 mi Calm Calm - N/A Fog Mostly Cloudy
4:00 AM 26.6 °F 22.6 °F 26.6 °F 100% 30.34 in 15.0 mi South 3.5 mph - N/A   Mostly Cloudy
4:50 AM 26.6 °F 22.6 °F 26.6 °F 100% 30.32 in 3.0 mi WSW 3.5 mph - N/A Snow Light Snow
5:00 AM 28 °F - 26 °F 91% 30.32 in 2 mi SW 3.5 mph - - Snow Light Snow
5:00 AM 26.6 °F 22.6 °F 26.6 °F 100% 30.32 in 2.0 mi SW 3.5 mph - N/A Snow Light Snow
6:00 AM 28.4 °F 23.3 °F 26.6 °F 93% 30.28 in 2.0 mi West 4.6 mph - N/A Snow Light Snow
7:00 AM 26.6 °F - 26.6 °F 100% 30.25 in 2.0 mi SW 2.3 mph - N/A Snow Light Snow
7:07 AM 26.6 °F - 26.6 °F 100% 30.24 in 5.0 mi WSW 2.3 mph - N/A Snow Light Snow
7:34 AM 26.6 °F 22.6 °F 26.6 °F 100% 30.22 in 2.0 mi SW 3.5 mph - N/A Snow Light Snow
8:00 AM 26.6 °F 22.6 °F 26.6 °F 100% 30.21 in 1.0 mi SW 3.5 mph - N/A Snow Light Snow
9:00 AM 28.4 °F - 26.6 °F 93% 30.18 in 1.0 mi SW 2.3 mph - N/A Snow Light Snow
10:00 AM 28.4 °F - 26.6 °F 93% 30.14 in 0.8 mi South 2.3 mph - N/A Snow Light Snow
11:00 AM 29 °F - 28 °F 93% 30.10 in 1 mi SSW 2.3 mph - - Snow Light Snow
11:00 AM 28.4 °F - 28.4 °F 100% 30.10 in 0.8 mi SSW 2.3 mph - N/A Snow Light Snow
12:00 PM 30.2 °F - 28.4 °F 93% 30.05 in 1.0 mi Calm Calm - N/A Snow Light Snow
12:39 PM 30.2 °F - 28.4 °F 93% 30.01 in 1.5 mi Calm Calm - N/A Snow Light Snow
1:00 PM 30.2 °F - 28.4 °F 93% 29.99 in 1.5 mi Calm Calm - N/A Snow Light Snow
2:00 PM 30.2 °F - 28.4 °F 93% 29.96 in 1.0 mi Calm Calm - N/A Snow Light Snow
3:00 PM 30.2 °F - 28.4 °F 93% 29.91 in 1.0 mi WSW 2.3 mph - N/A Snow Light Snow
4:00 PM 30.2 °F - 30.2 °F 100% 29.88 in 1.0 mi Calm Calm - N/A Snow Light Snow
5:00 PM 31 °F - 30 °F 94% 29.84 in 1 mi West 4.6 mph - - Snow Light Snow
5:00 PM 30.2 °F 26.7 °F 30.2 °F 100% 29.84 in 1.5 mi West 3.5 mph - N/A Snow Light Snow
6:00 PM 30.2 °F 26.7 °F 28.4 °F 93% 29.82 in 1.5 mi WSW 3.5 mph - N/A Snow Light Snow
7:00 PM 30.2 °F 26.7 °F 28.4 °F 93% 29.81 in 2.0 mi SW 3.5 mph - N/A Snow Light Snow
8:00 PM 30.2 °F - 30.2 °F 100% 29.79 in 2.0 mi SSW 2.3 mph - N/A Snow Light Snow
8:18 PM 30.2 °F - 30.2 °F 100% 29.79 in 3.0 mi WNW 2.3 mph - N/A Snow Light Snow
9:00 PM 30.2 °F - 28.4 °F 93% 29.79 in 2.0 mi SSW 2.3 mph - N/A Snow Light Snow
9:54 PM 30.2 °F - 28.4 °F 93% 29.80 in 3.0 mi Calm Calm - N/A Snow Light Snow
10:00 PM 30.2 °F - 28.4 °F 93% 29.80 in 3.0 mi Calm Calm - N/A Snow Light Snow
10:21 PM 30.2 °F 26.7 °F 28.4 °F 93% 29.81 in 2.0 mi WNW 3.5 mph - N/A Snow Light Snow
11:00 PM 30 °F - 28 °F 91% 29.81 in 6 mi NNW 1.2 mph - - Snow Light Snow
11:00 PM 30.2 °F - 28.4 °F 93% 29.81 in 6.0 mi Calm Calm - N/A Snow Light Snow